Find the Weather for any City, State  
or Zipcode, or Country:

West Linn, OR 97068 Weather
Local Radar
Local Radar  
Graphs, Details
Graphs and Gauges
Detailed Weather
Detailed Reports
Maps
Temperature
Heat Index
Windchill
Humidity
Radar
Dew Point
Wind
Visibility
Visible Satellite
Satellite
Fronts
Snow Depth
Jet Stream
Flight Rules
Forecast Maps
Temperature Forecast
Maximum Temperature Forecast
Minimum Temperature Forecast
Dewpoint Forecast
Prevalent Weather
12Hr Probability of Precip.
Sky Cover
Health Maps
UV Forecast
Air Quality
Peak Air Quality Index
Weather Station
Oregon Scientific WMR-968
Current Conditions [Select Refresh to Update]
Updated: 6:45am on 12/7/14
(location)
Currently:
42.1°
Clear
Mostly Cloudy
High: 46.8° 
(12:00am) 
Low: 42.1° 
(5:53am)
Wind: 4 mph from the NNE
Gust: 4 mph
Today's High Wind: 8 mph (1:49am)
Humidity: 95%
Pressure: 30.14 in  (Steady) 
Pressure Rate: -0.006 in/hr
Dew Point: 40.8°
Wind Chill: 39.7°
Heat Index (feels like): 48.5°
Comfort Level: Cool
Temperature Rate:  -0.38°/hr
 
5 Day Forecast
 
Sun Mon Tue Wed Thu
Clear Clear Clear Clear Clear
Chance Rain Chance Rain Rain Chance Rain Chance Rain
50° 54° 57° 59° 55°
43° 50° 52° 48° 41°
Records and Normals
 
Temperature Forecast Normal Record
High 50°
(0)
Low 43°
(0)
 
Weather Advisories
No Advisories
Full Advisory Text...
Weather Map
Almanac
 
Sunrise:  
7:36am
Moonrise: 
6:04pm
Moon Phase:
100%
Sunset: 
4:27pm
Moonset:  
8:22am
 Star Chart...
Rainfall Totals
Hourly Rain 0.00 in
Daily Rain: 0.00 in
Monthly Rain: 0.94 in
Yearly Rain: 45.79 in
Normal Rain, month to date: 0.00 in
Normal Rain, year to date: 0.00 in
Local Weather Exchange® Network
Station ID City 
(Click for Map Location)
Neighborhood 
(Click for History)
Last Update (Date & Time) Temperature
 (°)
Dew
Point (°)
Humidity 
(%)
Wind 
(mph)
from the Wind Gust 
(mph) 
Pressure (in) Hourly
Rain (in)
KORWESTL3 West Linn Sunburst II 12/07 06:45:02 42.1 41.0 95 3 NNE 4 30.14 0.00
KORWESTL7 West Linn Hidden Springs 12/07 06:39:17 43.2 41.0 93 0 NW 4 30.12 0.00
KORWESTL11 West Linn Ridgebrook Park 12/07 06:34:59 39.7 38.0 94 0 NNE 0 30.15 0.00
KORWESTL13 West Linn Vineland 12/07 06:44:43 40.8 34.0 78 0 ENE 0 29.74 0.00
KORWESTL1 West Linn Beaver Nation on Skyline Ridge 12/07 06:45:04 41.9 40.0 94 0 NNE 0 30.17 0.00
MODT63 West Linn MesoWest Canemah (OR 99E MP 14) OR US ODOT 12/07 04:52:00 40.0 38.0 94 1 South 1 0.00 0.00
MORCO3 West Linn HADS WILLAMETTE RIVER BELOW OREGON CI OR US USGS 12/07 05:15:00 42.0 39.0 90 3 NNE 8 30.11 0.00
KORLAKEO12 Lake Oswego Marylhurst University 12/07 06:44:45 41.7 40.0 94 0 NW 2 29.81 0.00
KOROREGO29 Oregon City Canemah Way 12/07 06:42:20 39.2 38.0 97 1 NNW 1 30.15 0.00
KORGLADS5 GLADSTONE GLADSTONE (USA) 12/07 06:44:51 37.8 36.0 93 0 NW 0 29.87 0.00
KOROREGO14 Oregon City 221 Molalla Avenue 12/07 06:45:02 40.2 40.0 100 2 WNW 2 29.80 0.00
KORLAKEO17 Lake Oswego Palisades 12/07 06:40:52 41.4 39.0 92 0 North 0 30.19 0.00
KORLAKEO18 Lake Oswego MSW South Shore Estates 12/07 06:36:28 41.7 42.0 99 2 NE 0 30.18 0.00
KOROREGO10 Oregon City Tower Vista 12/07 06:45:01 39.9 39.0 97 3 WNW 3 30.12 0.00
KORGLADS6 Gladstone Gladstone - Gallweather.com 12/07 06:35:20 39.3 38.0 97 0 NW 0 30.13 0.00
KORPORTL111 Portland Oakgrove PO 1E (Milwaukie) 12/07 06:45:03 41.5 40.0 95 0 South 0 30.13 0.00
KORGLADS4 Gladstone Gladstone - Go Beavers! 12/07 06:40:17 38.5 38.0 98 0 NE 0 29.92 0.00
KORTUALA10 Tualatin Rosewood 12/07 06:42:37 44.1 38.0 79 0 North 0 30.16 0.00
KORMILWA9 Milwaukie Milwaukie @ 205 Clackamas 12/07 06:40:13 37.8 33.0 83 0 SSW 0 29.90 0.00
KORCLACK9 Clackamas 82nd Drive (GO BLAZERS) 12/07 06:45:04 36.5 36.0 100 0 WNW 0 30.14 0.00
KORCLACK8 Clackamas Watkins Park 12/07 06:45:00 37.0 36.0 97 0 SW 2 30.08 0.00
KORLAKEO19 Lake Oswego Lakeview Boulevard 12/07 06:41:09 39.7 37.0 90 0 North 0 30.23 0.00
KORCLACK6 Clackamas CHPCS Falcons 12/07 06:43:45 38.1 38.0 99 0 NE 0 30.11 0.00
KORLAKEO16 Lake Oswego Portland Near Road 12/07 06:40:38 37.9 0.0 99 1 North 0 --- 0.00
KOROREGO31 Oregon City Siler Conservatory 12/07 06:43:57 42.1 39.0 88 2 North 4 30.15 0.00
KORTUALA2 Tualatin 3DAdams Weather 12/07 06:45:03 38.5 38.0 96 0 West 0 30.15 0.00
KORPORTL245 Portland SW Portland - Tryon Creek 12/07 06:37:59 43.3 43.0 99 1 East 2 30.17 0.00
KORTUALA3 Tualatin Tualatin 12/07 06:44:11 38.2 36.0 92 0 NW 0 30.21 0.00
KORMILWA5 Milwaukie meso_neigh29 12/07 06:45:04 40.9 40.0 97 2 NNE 4 30.11 0.00
KORMILWA6 Milwaukie Logus-Stanley 12/07 06:44:11 42.4 42.0 99 0 North 1 30.20 0.00
KORPORTL104 Portland West Portland Park 12/07 06:44:00 41.8 40.0 92 2 ENE 2 30.12 0.00
KOROREGO23 Oregon City Bradley Rd 12/07 06:44:49 42.1 39.0 90 0 NNE 0 30.14 0.00
KORCANBY8 Canby Quarter Moon Ranch Weather 12/07 06:44:11 36.2 36.0 99 0 South 0 30.64 0.00
KORPORTL227 Portland Ardenwald Station #1 12/07 06:43:45 39.8 39.0 98 0 South 0 30.15 0.00
KORPORTL172 Portland Portland Rowing Club 12/07 06:45:02 43.3 42.0 95 2 North 5 30.19 0.00
KORPORTL200 Portland South Burlingame 12/07 06:45:05 43.6 40.0 88 0 North 0 29.78 0.33
KORTUALA7 Tualatin Lake Forest 12/07 06:44:10 37.4 37.0 98 0 ESE 0 29.95 0.00
KUAO Aurora Official Station 12/07 06:27:00 37.0 37.0 100 0 North --- 30.17 ---
KPDX Portland Official Station 12/07 06:00:00 40.0 39.0 97 4 NNE --- 30.19 ---
KVUO Vancouver Official Station 12/07 05:53:00 38.0 37.0 97 0 North --- 30.18 ---
Full Advisory Text
No Warnings

© Ambient Weather and Weather Underground
 Never base important decisions on this or any weather information obtained from the Internet
Updated Automatically by Ambient Weather's Virtual Weather Station  V13.01